| time (UTC) | temp F | wind direction | speed MPH | gust MPH | rain 1hr in | rain 24hr in | rain mn in | humidity % | barometer mb |
| 20260507210552 | 52 | 250 | 6.0 | 12.0 | 0.00 | 0.00 | 0.00 | 51 | 1010.9 |
| 20260507210057 | 52 | 261 | 4.0 | 12.0 | 0.00 | 0.00 | 0.00 | 51 | 1010.9 |
| 20260507205542 | 53 | 288 | 5.0 | 12.0 | 0.00 | 0.00 | 0.00 | 50 | 1010.9 |
| 20260507205034 | 53 | 252 | 5.0 | 11.0 | 0.00 | 0.00 | 0.00 | 52 | 1010.9 |
| 20260507204542 | 53 | 248 | 5.0 | 10.0 | 0.00 | 0.00 | 0.00 | 50 | 1011.0 |
| 20260507204046 | 53 | 234 | 5.0 | 12.0 | 0.00 | 0.00 | 0.00 | 49 | 1010.9 |
| 20260507203554 | 53 | 249 | 5.0 | 15.0 | 0.00 | 0.00 | 0.00 | 49 | 1010.9 |
| 20260507203102 | 53 | 246 | 5.0 | 15.0 | 0.00 | 0.00 | 0.00 | 50 | 1010.9 |
| 20260507202511 | 53 | 231 | 3.0 | 10.0 | 0.00 | 0.00 | 0.00 | 51 | 1011.0 |
| 20260507202026 | 53 | 235 | 5.0 | 11.0 | 0.00 | 0.00 | 0.00 | 52 | 1011.0 |
| 20260507201535 | 53 | 231 | 4.0 | 11.0 | 0.00 | 0.00 | 0.00 | 56 | 1011.0 |
| 20260507201044 | 53 | 267 | 4.0 | 10.0 | 0.00 | 0.00 | 0.00 | 54 | 1011.1 |
| 20260507200548 | 53 | 256 | 5.0 | 10.0 | 0.00 | 0.00 | 0.00 | 52 | 1011.1 |
| 20260507200053 | 53 | 265 | 3.0 | 10.0 | 0.00 | 0.00 | 0.00 | 54 | 1011.2 |
| 20260507195556 | 54 | 269 | 5.0 | 9.0 | 0.00 | 0.00 | 0.00 | 53 | 1011.2 |
| 20260507195017 | 54 | 309 | 4.0 | 9.0 | 0.00 | 0.00 | 0.00 | 56 | 1011.2 |
| 20260507194517 | 54 | 326 | 3.0 | 10.0 | 0.00 | 0.00 | 0.00 | 53 | 1011.1 |
| 20260507194029 | 54 | 238 | 4.0 | 11.0 | 0.00 | 0.00 | 0.00 | 50 | 1011.2 |
| 20260507193538 | 54 | 248 | 5.0 | 13.0 | 0.00 | 0.00 | 0.00 | 48 | 1011.2 |
| 20260507193053 | 54 | 271 | 4.0 | 14.0 | 0.00 | 0.00 | 0.00 | 50 | 1011.3 |
| 20260507192546 | 53 | 253 | 5.0 | 13.0 | 0.00 | 0.00 | 0.00 | 48 | 1011.3 |
| 20260507192052 | 53 | 298 | 4.0 | 11.0 | 0.00 | 0.00 | 0.00 | 48 | 1011.4 |
| 20260507191555 | 53 | 298 | 4.0 | 11.0 | 0.00 | 0.00 | 0.00 | 51 | 1011.4 |
| 20260507191056 | 53 | 256 | 4.0 | 11.0 | 0.00 | 0.00 | 0.00 | 52 | 1011.3 |
| 20260507190538 | 53 | 234 | 6.0 | 11.0 | 0.00 | 0.00 | 0.00 | 52 | 1011.4 |
| 20260507190052 | 53 | 242 | 4.0 | 11.0 | 0.00 | 0.00 | 0.00 | 53 | 1011.4 |
| 20260507185559 | 53 | 246 | 4.0 | 11.0 | 0.00 | 0.00 | 0.00 | 54 | 1011.5 |
| 20260507185008 | 53 | 256 | 4.0 | 11.0 | 0.00 | 0.00 | 0.00 | 59 | 1011.6 |
| 20260507184520 | 53 | 258 | 5.0 | 10.0 | 0.00 | 0.00 | 0.00 | 58 | 1011.5 |
| 20260507184018 | 53 | 252 | 4.0 | 9.0 | 0.00 | 0.00 | 0.00 | 65 | 1011.7 |
| 20260507183532 | 53 | 252 | 4.0 | 8.0 | 0.00 | 0.00 | 0.00 | 64 | 1011.7 |
| 20260507183035 | 53 | 281 | 1.0 | 5.0 | 0.00 | 0.00 | 0.00 | 67 | 1011.6 |
| 20260507182540 | 53 | 271 | 1.0 | 7.0 | 0.00 | 0.00 | 0.00 | 67 | 1011.7 |
| 20260507182030 | 53 | 284 | 2.0 | 7.0 | 0.00 | 0.00 | 0.00 | 71 | 1011.7 |
| 20260507181537 | 52 | 277 | 2.0 | 6.0 | 0.00 | 0.00 | 0.00 | 70 | 1011.8 |
| 20260507181024 | 52 | 231 | 2.0 | 6.0 | 0.00 | 0.00 | 0.00 | 69 | 1011.8 |
| 20260507180534 | 53 | 254 | 3.0 | 7.0 | 0.00 | 0.00 | 0.00 | 67 | 1011.7 |
| 20260507180036 | 53 | 281 | 3.0 | 8.0 | 0.00 | 0.00 | 0.00 | 67 | 1011.7 |
| 20260507175539 | 53 | 300 | 2.0 | 8.0 | 0.00 | 0.00 | 0.00 | 70 | 1011.7 |
| 20260507175028 | 52 | 279 | 2.0 | 8.0 | 0.00 | 0.00 | 0.00 | 70 | 1011.7 |
| 20260507174514 | 52 | 336 | 2.0 | 10.0 | 0.00 | 0.00 | 0.00 | 71 | 1011.8 |
| 20260507174018 | 52 | 234 | 5.0 | 10.0 | 0.00 | 0.00 | 0.00 | 69 | 1011.9 |
| 20260507173523 | 53 | 232 | 3.0 | 6.0 | 0.00 | 0.00 | 0.00 | 70 | 1011.8 |
| 20260507173027 | 53 | 273 | 2.0 | 7.0 | 0.00 | 0.00 | 0.00 | 72 | 1012.0 |
| 20260507172532 | 52 | 300 | 1.0 | 8.0 | 0.00 | 0.00 | 0.00 | 73 | 1011.9 |
| 20260507172036 | 52 | 11 | 3.0 | 10.0 | 0.00 | 0.00 | 0.00 | 71 | 1012.0 |
| 20260507171600 | 52 | 256 | 3.0 | 10.0 | 0.00 | 0.00 | 0.00 | 70 | 1012.0 |
| 20260507171052 | 52 | 323 | 3.0 | 9.0 | 0.00 | 0.00 | 0.00 | 72 | 1012.0 |
| 20260507170601 | 52 | 263 | 4.0 | 8.0 | 0.00 | 0.00 | 0.00 | 70 | 1012.0 |
| 20260507170503 | 52 | 235 | 3.0 | 8.0 | 0.00 | 0.00 | 0.00 | 71 | 1012.0 |
| 20260507170002 | 53 | 284 | 2.0 | 7.0 | 0.00 | 0.00 | 0.00 | 72 | 1012.1 |
| 20260507165548 | 53 | 238 | 3.0 | 8.0 | 0.00 | 0.00 | 0.00 | 73 | 1012.1 |
| 20260507165056 | 52 | 244 | 4.0 | 8.0 | 0.00 | 0.00 | 0.00 | 70 | 1012.1 |
| 20260507164506 | 52 | 320 | 3.0 | 9.0 | 0.00 | 0.00 | 0.00 | 69 | 1012.1 |
| 20260507164038 | 53 | 230 | 4.0 | 7.0 | 0.00 | 0.00 | 0.00 | 69 | 1012.1 |
| 20260507163522 | 53 | 279 | 2.0 | 8.0 | 0.00 | 0.00 | 0.00 | 73 | 1012.1 |
| 20260507163011 | 52 | 281 | 2.0 | 6.0 | 0.00 | 0.00 | 0.00 | 73 | 1012.2 |
| 20260507162556 | 52 | 277 | 2.0 | 6.0 | 0.00 | 0.00 | 0.00 | 72 | 1012.2 |
| 20260507162103 | 52 | 327 | 2.0 | 8.0 | 0.00 | 0.00 | 0.00 | 70 | 1012.3 |
| 20260507161511 | 53 | 234 | 2.0 | 9.0 | 0.00 | 0.00 | 0.00 | 71 | 1012.3 |
| 20260507161014 | 52 | 250 | 3.0 | 10.0 | 0.00 | 0.00 | 0.00 | 72 | 1012.3 |
| 20260507160600 | 52 | 313 | 3.0 | 12.0 | 0.00 | 0.00 | 0.00 | 73 | 1012.3 |
| 20260507160502 | 52 | 231 | 3.0 | 12.0 | 0.00 | 0.00 | 0.00 | 73 | 1012.3 |
| 20260507160007 | 52 | 227 | 6.0 | 12.0 | 0.00 | 0.00 | 0.00 | 69 | 1012.3 |
| 20260507155511 | 52 | 310 | 3.0 | 9.0 | 0.00 | 0.00 | 0.00 | 70 | 1012.5 |
| 20260507155023 | 52 | 232 | 2.0 | 8.0 | 0.00 | 0.00 | 0.00 | 71 | 1012.4 |
| 20260507154530 | 52 | 319 | 3.0 | 8.0 | 0.00 | 0.00 | 0.00 | 70 | 1012.4 |
| 20260507154037 | 52 | 260 | 3.0 | 8.0 | 0.00 | 0.00 | 0.00 | 70 | 1012.5 |
| 20260507153541 | 52 | 284 | 1.0 | 7.0 | 0.00 | 0.00 | 0.00 | 72 | 1012.6 |
| 20260507153032 | 52 | 246 | 2.0 | 8.0 | 0.00 | 0.00 | 0.00 | 72 | 1012.5 |
| 20260507152537 | 52 | 268 | 2.0 | 7.0 | 0.00 | 0.00 | 0.00 | 72 | 1012.5 |
| 20260507152044 | 51 | 289 | 1.0 | 9.0 | 0.00 | 0.00 | 0.00 | 73 | 1012.5 |
| 20260507151524 | 51 | 236 | 2.0 | 9.0 | 0.00 | 0.00 | 0.00 | 73 | 1012.5 |
| 20260507151033 | 50 | 245 | 2.0 | 9.0 | 0.00 | 0.00 | 0.00 | 74 | 1012.6 |
| 20260507150543 | 50 | 238 | 4.0 | 9.0 | 0.00 | 0.00 | 0.00 | 72 | 1012.6 |
| 20260507150050 | 50 | 251 | 4.0 | 8.0 | 0.00 | 0.01 | 0.00 | 72 | 1012.7 |
| 20260507145558 | 50 | 256 | 1.0 | 8.0 | 0.00 | 0.01 | 0.00 | 73 | 1012.7 |
| 20260507145006 | 50 | 284 | 0.0 | 6.0 | 0.00 | 0.01 | 0.00 | 73 | 1012.7 |
| 20260507144513 | 50 | 267 | 2.0 | 6.0 | 0.00 | 0.01 | 0.00 | 72 | 1012.7 |
| 20260507144018 | 50 | 237 | 3.0 | 8.0 | 0.00 | 0.01 | 0.00 | 71 | 1012.7 |
| 20260507143531 | 50 | 244 | 3.0 | 8.0 | 0.00 | 0.01 | 0.00 | 72 | 1012.8 |
| 20260507143037 | 49 | 241 | 1.0 | 10.0 | 0.00 | 0.01 | 0.00 | 72 | 1012.8 |
| 20260507142546 | 49 | 256 | 2.0 | 10.0 | 0.00 | 0.01 | 0.00 | 71 | 1012.8 |
| 20260507142039 | 49 | 227 | 3.0 | 7.0 | 0.00 | 0.01 | 0.00 | 71 | 1012.9 |
| 20260507141543 | 49 | 242 | 0.0 | 5.0 | 0.00 | 0.01 | 0.00 | 72 | 1012.9 |
| 20260507141049 | 49 | 221 | 1.0 | 9.0 | 0.00 | 0.01 | 0.00 | 72 | 1013.0 |
| 20260507140542 | 49 | 254 | 3.0 | 9.0 | 0.00 | 0.01 | 0.00 | 72 | 1012.9 |
| 20260507140052 | 48 | 246 | 2.0 | 4.0 | 0.00 | 0.01 | 0.00 | 71 | 1012.9 |
| 20260507135551 | 48 | 252 | 2.0 | 4.0 | 0.00 | 0.01 | 0.00 | 71 | 1013.0 |
| 20260507135051 | 48 | 242 | 1.0 | 4.0 | 0.00 | 0.01 | 0.00 | 71 | 1013.0 |
| 20260507134543 | 48 | 242 | 2.0 | 4.0 | 0.00 | 0.01 | 0.00 | 71 | 1013.0 |
| 20260507134031 | 48 | 252 | 2.0 | 4.0 | 0.00 | 0.01 | 0.00 | 71 | 1013.1 |
| 20260507133513 | 48 | 259 | 2.0 | 3.0 | 0.00 | 0.01 | 0.00 | 71 | 1013.1 |
| 20260507133014 | 48 | 261 | 1.0 | 3.0 | 0.00 | 0.01 | 0.00 | 70 | 1013.1 |
| 20260507132528 | 48 | 268 | 0.0 | 3.0 | 0.00 | 0.01 | 0.00 | 71 | 1013.1 |
| 20260507132057 | 47 | 268 | 0.0 | 3.0 | 0.00 | 0.01 | 0.00 | 71 | 1013.1 |
| 20260507131505 | 47 | 268 | 1.0 | 3.0 | 0.00 | 0.01 | 0.00 | 71 | 1013.2 |
| 20260507131007 | 47 | 268 | 0.0 | 3.0 | 0.00 | 0.01 | 0.00 | 71 | 1013.1 |
| 20260507130518 | 47 | 268 | 1.0 | 3.0 | 0.00 | 0.01 | 0.00 | 72 | 1013.3 |
| 20260507130001 | 47 | 273 | 1.0 | 4.0 | 0.00 | 0.01 | 0.00 | 72 | 1013.2 |
| 20260507125509 | 47 | 274 | 0.0 | 1.0 | 0.00 | 0.01 | 0.00 | 72 | 1013.2 |
| 20260507125021 | 46 | 273 | 0.0 | 3.0 | 0.00 | 0.01 | 0.00 | 72 | 1013.2 |
| 20260507124532 | 46 | 273 | 1.0 | 3.0 | 0.00 | 0.01 | 0.00 | 73 | 1013.2 |
| 20260507124039 | 46 | 274 | 0.0 | 3.0 | 0.00 | 0.01 | 0.00 | 74 | 1013.3 |
| 20260507123543 | 45 | 274 | 1.0 | 3.0 | 0.00 | 0.01 | 0.00 | 73 | 1013.2 |
| 20260507123059 | 45 | 292 | 0.0 | 3.0 | 0.00 | 0.01 | 0.00 | 73 | 1013.2 |
| 20260507122503 | 45 | 292 | 1.0 | 3.0 | 0.00 | 0.01 | 0.00 | 74 | 1013.3 |
| 20260507122005 | 45 | 238 | 0.0 | 3.0 | 0.00 | 0.01 | 0.00 | 74 | 1013.4 |
| 20260507121515 | 45 | 276 | 1.0 | 3.0 | 0.00 | 0.01 | 0.00 | 74 | 1013.4 |
| 20260507121022 | 44 | 277 | 0.0 | 3.0 | 0.00 | 0.01 | 0.00 | 74 | 1013.5 |
| 20260507120509 | 44 | 285 | 1.0 | 8.0 | 0.00 | 0.01 | 0.00 | 73 | 1013.3 |
| 20260507120006 | 44 | 355 | 3.0 | 8.0 | 0.00 | 0.02 | 0.00 | 73 | 1013.3 |
| 20260507115521 | 44 | 342 | 0.0 | 4.0 | 0.00 | 0.02 | 0.00 | 73 | 1013.3 |
| 20260507115005 | 44 | 342 | 1.0 | 5.0 | 0.00 | 0.02 | 0.00 | 71 | 1013.3 |
| 20260507114522 | 44 | 265 | 1.0 | 6.0 | 0.00 | 0.02 | 0.00 | 69 | 1013.3 |
| 20260507114010 | 44 | 238 | 3.0 | 8.0 | 0.00 | 0.02 | 0.00 | 70 | 1013.2 |
| 20260507113523 | 44 | 335 | 4.0 | 8.0 | 0.00 | 0.02 | 0.00 | 68 | 1013.1 |
| 20260507113006 | 44 | 192 | 1.0 | 8.0 | 0.00 | 0.02 | 0.00 | 67 | 1012.7 |
| 20260507112557 | 44 | 192 | 3.0 | 8.0 | 0.00 | 0.02 | 0.00 | 66 | 1012.7 |
| 20260507112043 | 44 | 175 | 1.0 | 8.0 | 0.00 | 0.02 | 0.00 | 67 | 1012.7 |
| 20260507111548 | 44 | 170 | 1.0 | 9.0 | 0.00 | 0.02 | 0.00 | 66 | 1012.7 |
| 20260507111052 | 44 | 196 | 3.0 | 9.0 | 0.00 | 0.02 | 0.00 | 65 | 1012.6 |
| 20260507110503 | 44 | 182 | 0.0 | 10.0 | 0.00 | 0.02 | 0.00 | 65 | 1012.5 |
| 20260507110007 | 44 | 179 | 5.0 | 10.0 | 0.00 | 0.06 | 0.00 | 64 | 1012.4 |
| 20260507105555 | 44 | 194 | 2.0 | 7.0 | 0.00 | 0.06 | 0.00 | 64 | 1012.3 |
| 20260507105005 | 44 | 186 | 2.0 | 11.0 | 0.00 | 0.06 | 0.00 | 66 | 1012.3 |
| 20260507104518 | 43 | 235 | 4.0 | 11.0 | 0.00 | 0.06 | 0.00 | 65 | 1012.3 |
| 20260507104025 | 43 | 193 | 3.0 | 9.0 | 0.00 | 0.06 | 0.00 | 65 | 1012.2 |
| 20260507103529 | 42 | 198 | 2.0 | 9.0 | 0.00 | 0.06 | 0.00 | 66 | 1012.2 |
| 20260507103036 | 42 | 204 | 3.0 | 9.0 | 0.00 | 0.06 | 0.00 | 65 | 1012.2 |
| 20260507102543 | 42 | 171 | 3.0 | 9.0 | 0.00 | 0.06 | 0.00 | 65 | 1012.2 |
| 20260507102050 | 42 | 174 | 2.0 | 8.0 | 0.00 | 0.06 | 0.00 | 64 | 1012.2 |
| 20260507101539 | 42 | 180 | 1.0 | 8.0 | 0.00 | 0.06 | 0.00 | 64 | 1012.1 |
| 20260507101045 | 42 | 188 | 2.0 | 7.0 | 0.00 | 0.06 | 0.00 | 64 | 1012.1 |
| 20260507100533 | 42 | 166 | 2.0 | 6.0 | 0.00 | 0.06 | 0.00 | 63 | 1012.1 |
| 20260507100051 | 42 | 161 | 3.0 | 6.0 | 0.00 | 0.13 | 0.00 | 63 | 1012.0 |
| 20260507095547 | 42 | 182 | 2.0 | 6.0 | 0.00 | 0.13 | 0.00 | 63 | 1012.1 |
| 20260507095050 | 42 | 184 | 2.0 | 4.0 | 0.00 | 0.13 | 0.00 | 64 | 1012.1 |
| 20260507094542 | 42 | 195 | 2.0 | 8.0 | 0.00 | 0.13 | 0.00 | 64 | 1012.0 |
| 20260507094053 | 42 | 161 | 2.0 | 8.0 | 0.00 | 0.13 | 0.00 | 64 | 1012.0 |
| 20260507093557 | 42 | 150 | 1.0 | 4.0 | 0.00 | 0.13 | 0.00 | 65 | 1012.1 |
| 20260507093101 | 42 | 194 | 2.0 | 4.0 | 0.00 | 0.13 | 0.00 | 65 | 1012.0 |
| 20260507092512 | 42 | 152 | 2.0 | 4.0 | 0.00 | 0.13 | 0.00 | 66 | 1012.1 |
| 20260507092011 | 42 | 146 | 1.0 | 4.0 | 0.00 | 0.13 | 0.00 | 65 | 1012.2 |
| 20260507091555 | 42 | 155 | 2.0 | 4.0 | 0.00 | 0.13 | 0.00 | 66 | 1012.0 |
| 20260507091041 | 42 | 182 | 2.0 | 4.0 | 0.00 | 0.13 | 0.00 | 66 | 1012.0 |
| 20260507090546 | 42 | 174 | 1.0 | 5.0 | 0.00 | 0.13 | 0.00 | 67 | 1012.2 |
| 20260507090053 | 42 | 150 | 2.0 | 5.0 | 0.00 | 0.18 | 0.00 | 67 | 1012.1 |
| 20260507085541 | 42 | 152 | 2.0 | 6.0 | 0.00 | 0.18 | 0.00 | 67 | 1012.2 |
| 20260507085049 | 42 | 153 | 2.0 | 5.0 | 0.00 | 0.18 | 0.00 | 67 | 1012.3 |
| 20260507084548 | 42 | 146 | 2.0 | 4.0 | 0.00 | 0.18 | 0.00 | 68 | 1012.3 |
| 20260507084035 | 42 | 146 | 1.0 | 3.0 | 0.00 | 0.18 | 0.00 | 68 | 1012.3 |
| 20260507083515 | 42 | 146 | 1.0 | 4.0 | 0.00 | 0.18 | 0.00 | 69 | 1012.4 |
| 20260507083028 | 42 | 146 | 1.0 | 4.0 | 0.00 | 0.18 | 0.00 | 70 | 1012.5 |
| 20260507082535 | 41 | 146 | 1.0 | 4.0 | 0.00 | 0.18 | 0.00 | 70 | 1012.5 |
| 20260507082030 | 41 | 180 | 1.0 | 5.0 | 0.00 | 0.18 | 0.00 | 71 | 1012.5 |
| 20260507081534 | 41 | 184 | 1.0 | 5.0 | 0.00 | 0.18 | 0.00 | 72 | 1012.5 |
| 20260507081035 | 41 | 192 | 1.0 | 5.0 | 0.00 | 0.18 | 0.00 | 73 | 1012.5 |
| 20260507080523 | 41 | 181 | 2.0 | 5.0 | 0.00 | 0.18 | 0.00 | 74 | 1012.5 |
| 20260507080031 | 41 | 146 | 1.0 | 4.0 | 0.00 | 0.23 | 0.00 | 75 | 1012.4 |
| 20260507075515 | 41 | 146 | 2.0 | 4.0 | 0.00 | 0.23 | 0.00 | 77 | 1012.5 |
| 20260507075017 | 41 | 192 | 1.0 | 3.0 | 0.00 | 0.23 | 0.00 | 78 | 1012.6 |
| 20260507074527 | 41 | 201 | 1.0 | 4.0 | 0.00 | 0.23 | 0.00 | 79 | 1012.7 |
| 20260507074032 | 41 | 197 | 1.0 | 4.0 | 0.00 | 0.23 | 0.00 | 79 | 1012.7 |
| 20260507073538 | 41 | 198 | 0.0 | 3.0 | 0.00 | 0.23 | 0.00 | 79 | 1012.7 |
| 20260507073027 | 41 | 176 | 0.0 | 3.0 | 0.00 | 0.23 | 0.00 | 80 | 1012.7 |
| 20260507072514 | 41 | 177 | 0.0 | 2.0 | 0.00 | 0.23 | 0.00 | 80 | 1012.8 |
| 20260507072002 | 41 | 177 | 0.0 | 5.0 | 0.00 | 0.23 | 0.00 | 80 | 1012.8 |
| 20260507071519 | 41 | 177 | 1.0 | 5.0 | 0.00 | 0.23 | 0.00 | 80 | 1012.8 |
| 20260507071023 | 41 | 192 | 1.0 | 4.0 | 0.00 | 0.23 | 0.00 | 81 | 1012.8 |
| 20260507070525 | 41 | 194 | 0.0 | 3.0 | 0.00 | 0.23 | 0.00 | 81 | 1012.8 |
| 20260507070030 | 41 | 194 | 1.0 | 4.0 | 0.00 | 0.24 | 0.00 | 80 | 1012.8 |
| 20260507065538 | 41 | 226 | 1.0 | 2.0 | 0.00 | 0.24 | 0.00 | 80 | 1012.8 |
| 20260507065042 | 41 | 226 | 0.0 | 2.0 | 0.00 | 0.24 | 0.00 | 80 | 1012.8 |
| 20260507064550 | 41 | 226 | 0.0 | 2.0 | 0.00 | 0.24 | 0.00 | 81 | 1012.7 |
| 20260507064038 | 41 | 226 | 1.0 | 2.0 | 0.00 | 0.24 | 0.00 | 81 | 1012.7 |
| 20260507063544 | 41 | 226 | 1.0 | 2.0 | 0.00 | 0.24 | 0.00 | 81 | 1012.8 |
| 20260507063024 | 41 | 226 | 1.0 | 3.0 | 0.00 | 0.24 | 0.00 | 81 | 1012.8 |
| 20260507062522 | 41 | 226 | 1.0 | 3.0 | 0.00 | 0.24 | 0.00 | 81 | 1012.8 |
| 20260507062058 | 41 | 226 | 1.0 | 3.0 | 0.00 | 0.24 | 0.00 | 81 | 1013.0 |
| 20260507061545 | 41 | 226 | 1.0 | 2.0 | 0.00 | 0.24 | 0.00 | 80 | 1013.1 |
| 20260507061051 | 42 | 226 | 1.0 | 2.0 | 0.00 | 0.24 | 0.00 | 79 | 1013.2 |
| 20260507060600 | 42 | 226 | 0.0 | 2.0 | 0.00 | 0.24 | 0.00 | 79 | 1013.3 |
| 20260507060500 | 42 | 226 | 0.0 | 2.0 | 0.00 | 0.24 | 0.00 | 79 | 1013.4 |
| 20260507060047 | 42 | 226 | 0.0 | 2.0 | 0.00 | 0.28 | 0.00 | 79 | 1013.3 |
| 20260507055546 | 42 | 226 | 0.0 | 2.0 | 0.00 | 0.28 | 0.00 | 78 | 1013.3 |
| 20260507055040 | 42 | 226 | 0.0 | 2.0 | 0.00 | 0.28 | 0.00 | 78 | 1013.3 |
| 20260507054537 | 43 | 226 | 0.0 | 2.0 | 0.00 | 0.28 | 0.00 | 78 | 1013.4 |
| 20260507054036 | 43 | 226 | 0.0 | 3.0 | 0.00 | 0.28 | 0.00 | 78 | 1013.4 |
| 20260507053542 | 43 | 226 | 1.0 | 3.0 | 0.00 | 0.28 | 0.00 | 79 | 1013.4 |
| 20260507053030 | 43 | 226 | 0.0 | 3.0 | 0.00 | 0.28 | 0.00 | 79 | 1013.4 |
| 20260507052536 | 43 | 226 | 0.0 | 3.0 | 0.00 | 0.28 | 0.00 | 80 | 1013.4 |
| 20260507052026 | 43 | 243 | 0.0 | 3.0 | 0.00 | 0.28 | 0.00 | 80 | 1013.4 |
| 20260507051535 | 43 | 243 | 0.0 | 2.0 | 0.00 | 0.28 | 0.00 | 81 | 1013.5 |
| 20260507051026 | 43 | 243 | 0.0 | 2.0 | 0.00 | 0.28 | 0.00 | 81 | 1013.5 |
| 20260507050524 | 43 | 243 | 0.0 | 2.0 | 0.00 | 0.28 | 0.00 | 81 | 1013.6 |
| 20260507050100 | 43 | 243 | 0.0 | 2.0 | 0.00 | 0.33 | 0.00 | 82 | 1013.5 |
| 20260507045541 | 43 | 243 | 0.0 | 2.0 | 0.00 | 0.33 | 0.00 | 82 | 1013.5 |
| 20260507045045 | 43 | 243 | 0.0 | 2.0 | 0.00 | 0.33 | 0.00 | 83 | 1013.6 |
| 20260507044555 | 43 | 243 | 0.0 | 1.0 | 0.00 | 0.33 | 0.00 | 83 | 1013.7 |
| 20260507044104 | 43 | 243 | 0.0 | 1.0 | 0.00 | 0.33 | 0.00 | 83 | 1013.6 |
| 20260507043510 | 43 | 243 | 0.0 | 1.0 | 0.00 | 0.33 | 0.00 | 83 | 1013.7 |
| 20260507043020 | 43 | 243 | 0.0 | 2.0 | 0.00 | 0.33 | 0.00 | 83 | 1013.8 |
| 20260507042522 | 43 | 243 | 0.0 | 2.0 | 0.00 | 0.33 | 0.00 | 83 | 1013.7 |
| 20260507042036 | 43 | 243 | 0.0 | 1.0 | 0.00 | 0.33 | 0.00 | 84 | 1013.7 |
| 20260507041545 | 43 | 243 | 0.0 | 1.0 | 0.00 | 0.33 | 0.00 | 84 | 1013.6 |
| 20260507041046 | 43 | 243 | 0.0 | 1.0 | 0.00 | 0.33 | 0.00 | 84 | 1013.7 |
| 20260507040551 | 43 | 243 | 0.0 | 1.0 | 0.00 | 0.33 | 0.00 | 84 | 1013.7 |
| 20260507040049 | 43 | 243 | 0.0 | 2.0 | 0.00 | 0.40 | 0.33 | 84 | 1013.8 |
| 20260507035551 | 43 | 243 | 0.0 | 2.0 | 0.00 | 0.40 | 0.33 | 84 | 1013.9 |
| 20260507035057 | 43 | 243 | 0.0 | 2.0 | 0.00 | 0.40 | 0.33 | 84 | 1013.7 |
| 20260507034544 | 43 | 243 | 0.0 | 2.0 | 0.00 | 0.40 | 0.33 | 84 | 1013.6 |
| 20260507034042 | 44 | 243 | 0.0 | 2.0 | 0.00 | 0.40 | 0.33 | 84 | 1013.6 |
| 20260507033553 | 44 | 243 | 0.0 | 2.0 | 0.00 | 0.40 | 0.33 | 84 | 1013.7 |
| 20260507033047 | 44 | 243 | 0.0 | 1.0 | 0.00 | 0.40 | 0.33 | 84 | 1013.7 |
| 20260507032557 | 44 | 243 | 0.0 | 1.0 | 0.00 | 0.40 | 0.33 | 84 | 1013.7 |
| 20260507032047 | 44 | 243 | 0.0 | 0.0 | 0.00 | 0.40 | 0.33 | 84 | 1013.7 |
| 20260507031555 | 44 | 243 | 0.0 | 0.0 | 0.00 | 0.40 | 0.33 | 84 | 1013.6 |
| 20260507031006 | 44 | 243 | 0.0 | 0.0 | 0.00 | 0.40 | 0.33 | 84 | 1013.6 |
| 20260507030521 | 44 | 243 | 0.0 | 0.0 | 0.00 | 0.40 | 0.33 | 84 | 1013.5 |
| 20260507030035 | 44 | 243 | 0.0 | 1.0 | 0.00 | 0.46 | 0.33 | 84 | 1013.5 |
| 20260507025534 | 44 | 243 | 0.0 | 1.0 | 0.00 | 0.46 | 0.33 | 84 | 1013.5 |
| 20260507025045 | 44 | 243 | 0.0 | 1.0 | 0.00 | 0.46 | 0.33 | 84 | 1013.6 |
| 20260507024542 | 44 | 243 | 0.0 | 1.0 | 0.00 | 0.46 | 0.33 | 84 | 1013.6 |
| 20260507024042 | 44 | 245 | 0.0 | 0.0 | 0.00 | 0.46 | 0.33 | 83 | 1013.5 |
| 20260507023548 | 44 | 245 | 0.0 | 1.0 | 0.00 | 0.46 | 0.33 | 83 | 1013.5 |
| 20260507023048 | 44 | 245 | 0.0 | 1.0 | 0.00 | 0.46 | 0.33 | 83 | 1013.5 |
| 20260507022557 | 44 | 245 | 0.0 | 1.0 | 0.00 | 0.46 | 0.33 | 83 | 1013.6 |
| 20260507022005 | 45 | 245 | 0.0 | 1.0 | 0.00 | 0.46 | 0.33 | 82 | 1013.5 |
| 20260507021533 | 45 | 245 | 0.0 | 2.0 | 0.00 | 0.46 | 0.33 | 82 | 1013.4 |
| 20260507021023 | 45 | 245 | 0.0 | 2.0 | 0.00 | 0.46 | 0.33 | 82 | 1013.3 |
| 20260507020527 | 45 | 245 | 0.0 | 2.0 | 0.00 | 0.46 | 0.33 | 81 | 1013.3 |
| 20260507020021 | 45 | 245 | 0.0 | 2.0 | 0.00 | 0.56 | 0.33 | 80 | 1013.4 |
| 20260507015520 | 45 | 245 | 0.0 | 5.0 | 0.00 | 0.56 | 0.33 | 80 | 1013.4 |
| 20260507015008 | 46 | 245 | 0.0 | 5.0 | 0.00 | 0.56 | 0.33 | 80 | 1013.3 |
| 20260507014526 | 46 | 235 | 1.0 | 5.0 | 0.00 | 0.56 | 0.33 | 81 | 1013.5 |
| 20260507014036 | 46 | 236 | 1.0 | 6.0 | 0.00 | 0.56 | 0.33 | 80 | 1013.5 |
| 20260507013541 | 46 | 262 | 3.0 | 6.0 | 0.00 | 0.56 | 0.33 | 80 | 1013.5 |
| 20260507013053 | 46 | 232 | 2.0 | 6.0 | 0.00 | 0.56 | 0.33 | 79 | 1013.5 |
| 20260507012505 | 46 | 248 | 2.0 | 11.0 | 0.00 | 0.56 | 0.33 | 79 | 1013.6 |
| 20260507012009 | 46 | 254 | 3.0 | 11.0 | 0.00 | 0.56 | 0.33 | 78 | 1013.5 |
| 20260507011514 | 46 | 238 | 3.0 | 9.0 | 0.00 | 0.56 | 0.33 | 78 | 1013.6 |
| 20260507011052 | 46 | 273 | 3.0 | 6.0 | 0.00 | 0.56 | 0.33 | 78 | 1013.5 |
| 20260507010534 | 46 | 236 | 3.0 | 8.0 | 0.00 | 0.56 | 0.33 | 77 | 1013.5 |
| 20260507010045 | 46 | 240 | 3.0 | 9.0 | 0.00 | 0.71 | 0.33 | 77 | 1013.4 |
| 20260507005527 | 46 | 243 | 2.0 | 9.0 | 0.00 | 0.71 | 0.33 | 77 | 1013.5 |
| 20260507005033 | 46 | 266 | 2.0 | 7.0 | 0.00 | 0.71 | 0.33 | 76 | 1013.4 |
| 20260507004538 | 46 | 236 | 4.0 | 7.0 | 0.00 | 0.71 | 0.33 | 76 | 1013.3 |
| 20260507004053 | 46 | 238 | 3.0 | 8.0 | 0.00 | 0.71 | 0.33 | 77 | 1013.3 |
| 20260507003559 | 46 | 239 | 1.0 | 5.0 | 0.00 | 0.71 | 0.33 | 78 | 1013.2 |
| 20260507003503 | 46 | 215 | 1.0 | 5.0 | 0.00 | 0.71 | 0.33 | 78 | 1013.2 |
| 20260507003053 | 46 | 234 | 2.0 | 5.0 | 0.00 | 0.71 | 0.33 | 77 | 1013.1 |
| 20260507002544 | 45 | 219 | 1.0 | 5.0 | 0.00 | 0.71 | 0.33 | 77 | 1013.0 |
| 20260507002023 | 45 | 218 | 1.0 | 7.0 | 0.00 | 0.71 | 0.33 | 78 | 1012.9 |
| 20260507001533 | 45 | 184 | 0.0 | 7.0 | 0.00 | 0.71 | 0.33 | 78 | 1012.8 |
| 20260507001038 | 45 | 196 | 1.0 | 7.0 | 0.00 | 0.71 | 0.33 | 78 | 1012.9 |
| 20260507000542 | 45 | 244 | 0.0 | 3.0 | 0.00 | 0.71 | 0.33 | 78 | 1012.8 |
| 20260507000057 | 45 | 250 | 0.0 | 4.0 | 0.00 | 0.85 | 0.33 | 78 | 1013.0 |
| 20260506235601 | 45 | 269 | 1.0 | 4.0 | 0.00 | 0.85 | 0.33 | 77 | 1013.0 |
| 20260506235503 | 45 | 268 | 1.0 | 4.0 | 0.00 | 0.85 | 0.33 | 78 | 1013.0 |
| 20260506235025 | 46 | 175 | 0.0 | 4.0 | 0.00 | 0.85 | 0.33 | 78 | 1013.0 |
| 20260506234526 | 46 | 225 | 1.0 | 4.0 | 0.00 | 0.85 | 0.33 | 78 | 1013.0 |
| 20260506234034 | 46 | 221 | 1.0 | 6.0 | 0.00 | 0.85 | 0.33 | 78 | 1012.9 |
| 20260506233542 | 46 | 194 | 3.0 | 7.0 | 0.00 | 0.85 | 0.33 | 78 | 1012.7 |
| 20260506233048 | 46 | 190 | 3.0 | 8.0 | 0.00 | 0.85 | 0.33 | 77 | 1012.6 |
| 20260506232556 | 46 | 211 | 4.0 | 7.0 | 0.00 | 0.85 | 0.33 | 77 | 1012.5 |
| 20260506232100 | 46 | 227 | 3.0 | 11.0 | 0.00 | 0.85 | 0.33 | 77 | 1012.6 |
| 20260506231510 | 46 | 227 | 5.0 | 11.0 | 0.00 | 0.85 | 0.33 | 77 | 1012.6 |
| 20260506231059 | 46 | 261 | 3.0 | 10.0 | 0.00 | 0.85 | 0.33 | 77 | 1012.7 |
| 20260506230504 | 46 | 256 | 3.0 | 9.0 | 0.00 | 0.85 | 0.33 | 77 | 1012.6 |
| 20260506230006 | 46 | 257 | 1.0 | 12.0 | 0.00 | 0.99 | 0.33 | 77 | 1012.5 |
| 20260506225522 | 47 | 237 | 5.0 | 12.0 | 0.00 | 0.99 | 0.33 | 76 | 1012.5 |
| 20260506225028 | 47 | 236 | 4.0 | 12.0 | 0.00 | 0.99 | 0.33 | 76 | 1012.6 |
| 20260506224537 | 47 | 239 | 5.0 | 12.0 | 0.00 | 0.99 | 0.33 | 77 | 1012.6 |
| 20260506224028 | 47 | 268 | 4.0 | 12.0 | 0.00 | 0.99 | 0.33 | 77 | 1012.4 |
| 20260506223534 | 47 | 273 | 4.0 | 12.0 | 0.00 | 0.99 | 0.33 | 77 | 1012.4 |
| 20260506223030 | 47 | 241 | 6.0 | 12.0 | 0.00 | 0.99 | 0.33 | 76 | 1012.4 |
| 20260506222538 | 47 | 237 | 7.0 | 11.0 | 0.00 | 0.99 | 0.33 | 75 | 1012.4 |
| 20260506222045 | 47 | 240 | 4.0 | 11.0 | 0.00 | 0.99 | 0.33 | 75 | 1012.4 |
| 20260506221548 | 47 | 272 | 5.0 | 11.0 | 0.00 | 0.99 | 0.33 | 75 | 1012.3 |
| 20260506221059 | 48 | 236 | 3.0 | 12.0 | 0.00 | 0.99 | 0.33 | 75 | 1012.2 |
| 20260506220506 | 48 | 249 | 5.0 | 10.0 | 0.00 | 0.99 | 0.33 | 75 | 1012.3 |
| 20260506220003 | 48 | 229 | 5.0 | 9.0 | 0.00 | 1.17 | 0.33 | 75 | 1012.2 |
| 20260506215515 | 48 | 303 | 1.0 | 9.0 | 0.00 | 1.17 | 0.33 | 75 | 1012.0 |
| 20260506215020 | 49 | 334 | 3.0 | 9.0 | 0.00 | 1.17 | 0.33 | 73 | 1011.8 |
| 20260506214540 | 49 | 244 | 4.0 | 12.0 | 0.00 | 1.17 | 0.33 | 72 | 1011.7 |
| 20260506214044 | 49 | 236 | 8.0 | 17.0 | 0.00 | 1.17 | 0.33 | 71 | 1011.5 |
| 20260506213555 | 48 | 260 | 7.0 | 17.0 | 0.00 | 1.17 | 0.33 | 71 | 1011.4 |
| 20260506213002 | 48 | 217 | 6.0 | 15.0 | 0.00 | 1.17 | 0.33 | 72 | 1011.4 |
| 20260506212514 | 48 | 244 | 4.0 | 10.0 | 0.00 | 1.17 | 0.33 | 75 | 1011.3 |
| 20260506212027 | 49 | 244 | 4.0 | 10.0 | 0.00 | 1.17 | 0.33 | 73 | 1011.2 |
| 20260506211532 | 49 | 238 | 6.0 | 11.0 | 0.00 | 1.17 | 0.33 | 73 | 1011.2 |
| 20260506211034 | 49 | 240 | 5.0 | 11.0 | 0.00 | 1.17 | 0.33 | 74 | 1011.3 |